Wetterdaten: Woche 26.11.18 - 02.12.18 (KW48)
Datum Zeit Temperatur Luftfeuchte Luftdruck Niederschlag Windrichtung Sonnenschein Solar Wind
26.11.2018 00:00 2,2 C 100 % 1004,8 hPa 0,0 l/m N 0,00 h 0 W/m 0,5 km/h (0 Bft)
26.11.2018 01:00 2,3 C 99 % 1004,6 hPa 0,2 l/m N 0,00 h 0 W/m 0,0 km/h (0 Bft)
26.11.2018 02:00 2,3 C 99 % 1004,5 hPa 0,2 l/m N 0,00 h 0 W/m 0,0 km/h (0 Bft)
26.11.2018 03:00 2,2 C 100 % 1004,3 hPa 0,2 l/m N 0,00 h 0 W/m 0,0 km/h (0 Bft)
26.11.2018 04:00 2,1 C 99 % 1004,2 hPa 0,2 l/m N 0,00 h 0 W/m 0,0 km/h (0 Bft)
26.11.2018 05:00 2,0 C 99 % 1004,5 hPa 0,6 l/m N 0,00 h 0 W/m 0,3 km/h (0 Bft)
26.11.2018 06:00 1,9 C 100 % 1004,2 hPa 0,2 l/m N 0,00 h 0 W/m 0,0 km/h (0 Bft)
26.11.2018 07:00 1,9 C 100 % 1004,3 hPa 0,0 l/m N 0,00 h 0 W/m 0,0 km/h (0 Bft)
26.11.2018 08:00 1,9 C 100 % 1004,7 hPa 0,2 l/m O-NO 0,00 h 13 W/m 0,7 km/h (0 Bft)
26.11.2018 09:00 2,3 C 100 % 1005,0 hPa 0,0 l/m O-NO 0,00 h 33 W/m 5,9 km/h (2 Bft)
26.11.2018 10:00 2,6 C 100 % 1005,2 hPa 0,0 l/m O-NO 0,00 h 63 W/m 9,4 km/h (2 Bft)
26.11.2018 11:00 2,9 C 100 % 1005,1 hPa 0,0 l/m O-NO 0,00 h 53 W/m 6,7 km/h (2 Bft)
26.11.2018 12:00 2,8 C 100 % 1005,0 hPa 0,0 l/m O-NO 0,00 h 33 W/m 7,3 km/h (2 Bft)
26.11.2018 13:00 2,8 C 100 % 1005,1 hPa 0,0 l/m O-NO 0,00 h 47 W/m 3,3 km/h (1 Bft)
26.11.2018 14:00 2,8 C 100 % 1005,3 hPa 0,0 l/m O-NO 0,00 h 32 W/m 7,5 km/h (2 Bft)
26.11.2018 15:00 2,8 C 100 % 1005,8 hPa 0,0 l/m O-NO 0,00 h 13 W/m 7,0 km/h (2 Bft)
26.11.2018 16:00 2,7 C 99 % 1006,4 hPa 0,0 l/m N 0,00 h 0 W/m 0,8 km/h (0 Bft)
26.11.2018 17:00 2,6 C 99 % 1006,7 hPa 0,2 l/m O-NO 0,00 h 0 W/m 1,7 km/h (1 Bft)
26.11.2018 18:00 2,5 C 100 % 1007,4 hPa 0,2 l/m O-NO 0,00 h 0 W/m 3,3 km/h (1 Bft)
26.11.2018 19:00 2,2 C 99 % 1008,0 hPa 0,2 l/m O-NO 0,00 h 0 W/m 5,1 km/h (1 Bft)
26.11.2018 20:00 1,8 C 99 % 1008,7 hPa 0,2 l/m O-NO 0,00 h 0 W/m 4,7 km/h (1 Bft)
26.11.2018 21:00 1,4 C 99 % 1009,3 hPa 0,0 l/m O-NO 0,00 h 0 W/m 2,4 km/h (1 Bft)
26.11.2018 22:00 1,0 C 99 % 1009,9 hPa 0,0 l/m O-NO 0,00 h 0 W/m 1,1 km/h (0 Bft)
26.11.2018 23:00 0,8 C 99 % 1010,6 hPa 0,2 l/m N 0,00 h 0 W/m 0,0 km/h (0 Bft)
27.11.2018 00:00 0,8 C 99 % 1011,1 hPa 0,0 l/m N 0,00 h 0 W/m 0,4 km/h (0 Bft)
27.11.2018 01:00 0,8 C 99 % 1011,6 hPa 0,4 l/m N 0,00 h 0 W/m 0,0 km/h (0 Bft)
27.11.2018 02:00 0,7 C 99 % 1012,1 hPa 0,6 l/m N 0,00 h 0 W/m 0,0 km/h (0 Bft)
27.11.2018 03:00 0,6 C 99 % 1012,5 hPa 0,0 l/m N 0,00 h 0 W/m 0,0 km/h (0 Bft)
27.11.2018 04:00 0,6 C 99 % 1013,0 hPa 0,4 l/m N 0,00 h 0 W/m 0,0 km/h (0 Bft)
27.11.2018 05:00 0,6 C 99 % 1013,5 hPa 0,0 l/m N 0,00 h 0 W/m 0,0 km/h (0 Bft)
27.11.2018 06:00 0,5 C 99 % 1014,1 hPa 0,2 l/m N 0,00 h 0 W/m 0,0 km/h (0 Bft)
27.11.2018 07:00 0,5 C 99 % 1014,8 hPa 0,2 l/m N 0,00 h 0 W/m 0,0 km/h (0 Bft)
27.11.2018 08:00 0,5 C 99 % 1015,6 hPa 0,0 l/m N 0,00 h 5 W/m 0,0 km/h (0 Bft)
27.11.2018 09:00 0,6 C 99 % 1016,5 hPa 0,2 l/m N 0,00 h 14 W/m 0,0 km/h (0 Bft)
27.11.2018 10:00 0,8 C 99 % 1017,3 hPa 0,0 l/m N 0,00 h 59 W/m 0,0 km/h (0 Bft)
27.11.2018 11:00 1,2 C 99 % 1017,5 hPa 0,0 l/m N 0,00 h 80 W/m 0,0 km/h (0 Bft)
27.11.2018 12:00 1,6 C 99 % 1017,5 hPa 0,0 l/m N 0,00 h 106 W/m 0,0 km/h (0 Bft)
27.11.2018 13:00 2,0 C 99 % 1017,7 hPa 0,0 l/m O-NO 0,00 h 67 W/m 0,4 km/h (0 Bft)
27.11.2018 14:00 2,2 C 99 % 1018,1 hPa 0,0 l/m N 0,00 h 39 W/m 0,0 km/h (0 Bft)
27.11.2018 15:00 2,1 C 99 % 1018,8 hPa 0,0 l/m N 0,00 h 12 W/m 0,0 km/h (0 Bft)
27.11.2018 16:00 1,9 C 99 % 1019,4 hPa 0,0 l/m N 0,00 h 5 W/m 0,0 km/h (0 Bft)
27.11.2018 17:00 1,7 C 99 % 1020,0 hPa 0,2 l/m N 0,00 h 0 W/m 0,0 km/h (0 Bft)
27.11.2018 18:00 1,4 C 99 % 1020,6 hPa 0,4 l/m N 0,00 h 0 W/m 0,0 km/h (0 Bft)
27.11.2018 19:00 1,3 C 99 % 1021,1 hPa 0,0 l/m N 0,00 h 0 W/m 0,0 km/h (0 Bft)
27.11.2018 20:00 1,4 C 99 % 1021,5 hPa 0,0 l/m O-NO 0,00 h 0 W/m 0,5 km/h (0 Bft)
27.11.2018 21:00 1,7 C 99 % 1021,8 hPa 0,0 l/m O-NO 0,00 h 0 W/m 0,5 km/h (0 Bft)
27.11.2018 22:00 1,6 C 99 % 1022,2 hPa 0,0 l/m O-NO 0,00 h 0 W/m 1,5 km/h (1 Bft)
27.11.2018 23:00 1,6 C 99 % 1022,5 hPa 0,0 l/m N 0,00 h 0 W/m 0,0 km/h (0 Bft)
28.11.2018 00:00 1,5 C 99 % 1022,6 hPa 0,2 l/m N 0,00 h 0 W/m 0,0 km/h (0 Bft)
28.11.2018 01:00 1,3 C 99 % 1022,3 hPa 0,0 l/m N 0,00 h 0 W/m 0,0 km/h (0 Bft)
28.11.2018 02:00 1,3 C 99 % 1022,3 hPa 0,0 l/m N 0,00 h 0 W/m 0,0 km/h (0 Bft)
28.11.2018 03:00 1,3 C 99 % 1022,2 hPa 0,0 l/m N 0,00 h 0 W/m 0,0 km/h (0 Bft)
28.11.2018 04:00 1,2 C 99 % 1022,4 hPa 0,0 l/m N 0,00 h 0 W/m 0,0 km/h (0 Bft)
28.11.2018 05:00 1,0 C 99 % 1022,5 hPa 0,0 l/m N 0,00 h 0 W/m 0,0 km/h (0 Bft)
28.11.2018 06:00 0,5 C 99 % 1022,7 hPa 0,0 l/m N 0,00 h 0 W/m 0,0 km/h (0 Bft)
28.11.2018 07:00 0,1 C 99 % 1023,1 hPa 0,0 l/m N 0,00 h 7 W/m 0,3 km/h (0 Bft)
28.11.2018 08:00 0,2 C 99 % 1023,6 hPa 0,0 l/m O-NO 0,42 h 44 W/m 2,5 km/h (1 Bft)
28.11.2018 09:00 0,7 C 99 % 1023,8 hPa 0,0 l/m O-NO 0,00 h 75 W/m 2,1 km/h (1 Bft)
28.11.2018 10:00 1,3 C 99 % 1024,0 hPa 0,0 l/m O-NO 0,42 h 201 W/m 1,2 km/h (1 Bft)
28.11.2018 11:00 1,6 C 98 % 1024,2 hPa 0,0 l/m O-NO 0,25 h 182 W/m 1,6 km/h (1 Bft)
28.11.2018 12:00 2,5 C 96 % 1023,8 hPa 0,0 l/m O-NO 1,00 h 242 W/m 1,5 km/h (1 Bft)
28.11.2018 13:00 3,6 C 93 % 1023,3 hPa 0,0 l/m N 1,00 h 296 W/m 0,1 km/h (0 Bft)
28.11.2018 14:00 4,2 C 88 % 1023,1 hPa 0,0 l/m N 0,83 h 174 W/m 0,0 km/h (0 Bft)
28.11.2018 15:00 3,6 C 90 % 1023,3 hPa 0,0 l/m N 0,00 h 60 W/m 0,0 km/h (0 Bft)
28.11.2018 16:00 3,1 C 94 % 1023,6 hPa 0,0 l/m N 0,33 h 15 W/m 0,0 km/h (0 Bft)
28.11.2018 17:00 2,5 C 94 % 1023,8 hPa 0,0 l/m N 0,00 h 0 W/m 0,0 km/h (0 Bft)
28.11.2018 18:00 1,4 C 94 % 1023,9 hPa 0,0 l/m N 0,00 h 0 W/m 0,0 km/h (0 Bft)
28.11.2018 19:00 1,0 C 95 % 1023,8 hPa 0,0 l/m O-NO 0,00 h 0 W/m 0,8 km/h (0 Bft)
28.11.2018 20:00 0,6 C 95 % 1024,1 hPa 0,0 l/m O-NO 0,00 h 0 W/m 3,6 km/h (1 Bft)
28.11.2018 21:00 0,3 C 96 % 1024,1 hPa 0,0 l/m O-NO 0,00 h 0 W/m 1,3 km/h (1 Bft)
28.11.2018 22:00 0,2 C 97 % 1024,2 hPa 0,0 l/m N 0,00 h 0 W/m 0,0 km/h (0 Bft)
28.11.2018 23:00 0,2 C 97 % 1024,1 hPa 0,0 l/m N 0,00 h 0 W/m 0,0 km/h (0 Bft)
29.11.2018 00:00 0,1 C 98 % 1023,9 hPa 0,0 l/m N 0,00 h 0 W/m 0,0 km/h (0 Bft)
29.11.2018 01:00 0,1 C 98 % 1023,4 hPa 0,0 l/m N 0,00 h 0 W/m 0,4 km/h (0 Bft)
29.11.2018 02:00 -0,1 C 98 % 1023,5 hPa 0,0 l/m N 0,00 h 0 W/m 0,0 km/h (0 Bft)
29.11.2018 03:00 -0,2 C 98 % 1023,1 hPa 0,0 l/m N 0,00 h 0 W/m 0,0 km/h (0 Bft)
29.11.2018 04:00 -0,3 C 98 % 1022,6 hPa 0,0 l/m N 0,00 h 0 W/m 0,3 km/h (0 Bft)
29.11.2018 05:00 -0,4 C 98 % 1022,1 hPa 0,0 l/m N 0,00 h 0 W/m 2,0 km/h (1 Bft)
29.11.2018 06:00 -0,5 C 98 % 1021,3 hPa 0,0 l/m O-NO 0,00 h 0 W/m 1,2 km/h (1 Bft)
29.11.2018 07:00 -0,6 C 98 % 1021,2 hPa 0,0 l/m O-NO 0,00 h 10 W/m 2,0 km/h (1 Bft)
29.11.2018 08:00 -0,6 C 98 % 1020,9 hPa 0,0 l/m O-NO 0,17 h 38 W/m 6,0 km/h (2 Bft)
29.11.2018 09:00 -0,2 C 98 % 1020,8 hPa 0,0 l/m O-NO 0,42 h 109 W/m 7,2 km/h (2 Bft)
29.11.2018 10:00 0,3 C 98 % 1020,9 hPa 0,0 l/m O-NO 0,17 h 156 W/m 10,5 km/h (2 Bft)
29.11.2018 11:00 0,9 C 98 % 1020,2 hPa 0,0 l/m O-NO 0,50 h 194 W/m 9,9 km/h (2 Bft)
29.11.2018 12:00 2,1 C 96 % 1019,6 hPa 0,0 l/m O-NO 0,75 h 240 W/m 6,7 km/h (2 Bft)
29.11.2018 13:00 2,1 C 95 % 1019,4 hPa 0,0 l/m O-NO 0,08 h 128 W/m 2,8 km/h (1 Bft)
29.11.2018 14:00 2,1 C 95 % 1018,6 hPa 0,0 l/m N 0,00 h 104 W/m 0,9 km/h (0 Bft)
29.11.2018 15:00 2,2 C 95 % 1018,5 hPa 0,0 l/m N 0,00 h 42 W/m 0,0 km/h (0 Bft)
29.11.2018 16:00 2,1 C 95 % 1018,5 hPa 0,0 l/m N 0,00 h 10 W/m 0,5 km/h (0 Bft)
29.11.2018 17:00 1,8 C 95 % 1018,1 hPa 0,0 l/m N 0,00 h 0 W/m 0,0 km/h (0 Bft)
29.11.2018 18:00 1,8 C 95 % 1017,7 hPa 0,0 l/m N 0,00 h 0 W/m 0,1 km/h (0 Bft)
29.11.2018 19:00 1,3 C 95 % 1017,4 hPa 0,0 l/m N 0,00 h 0 W/m 0,4 km/h (0 Bft)
29.11.2018 20:00 0,7 C 95 % 1017,4 hPa 0,0 l/m O-NO 0,00 h 0 W/m 1,3 km/h (1 Bft)
29.11.2018 21:00 0,2 C 96 % 1017,3 hPa 0,0 l/m N 0,00 h 0 W/m 0,0 km/h (0 Bft)
29.11.2018 22:00 0,3 C 96 % 1017,1 hPa 0,0 l/m N 0,00 h 0 W/m 0,0 km/h (0 Bft)
29.11.2018 23:00 0,6 C 97 % 1017,0 hPa 0,0 l/m N 0,00 h 0 W/m 0,0 km/h (0 Bft)
30.11.2018 00:00 0,8 C 97 % 1016,8 hPa 0,0 l/m N 0,00 h 0 W/m 0,0 km/h (0 Bft)
30.11.2018 01:00 0,7 C 97 % 1016,7 hPa 0,0 l/m N 0,00 h 0 W/m 0,0 km/h (0 Bft)
30.11.2018 02:00 0,7 C 97 % 1016,6 hPa 0,0 l/m N 0,00 h 0 W/m 0,0 km/h (0 Bft)
30.11.2018 03:00 0,6 C 97 % 1016,3 hPa 0,0 l/m N 0,00 h 0 W/m 0,7 km/h (0 Bft)
30.11.2018 04:00 1,0 C 98 % 1016,1 hPa 0,0 l/m N 0,00 h 0 W/m 0,4 km/h (0 Bft)
30.11.2018 05:00 1,3 C 98 % 1016,1 hPa 0,0 l/m O-NO 0,00 h 0 W/m 0,9 km/h (0 Bft)
30.11.2018 06:00 1,2 C 98 % 1016,1 hPa 0,0 l/m N 0,00 h 0 W/m 0,0 km/h (0 Bft)
30.11.2018 07:00 0,5 C 98 % 1016,3 hPa 0,0 l/m N 0,00 h 5 W/m 0,4 km/h (0 Bft)
30.11.2018 08:00 1,0 C 98 % 1016,3 hPa 0,0 l/m O-NO 0,00 h 29 W/m 2,3 km/h (1 Bft)
30.11.2018 09:00 2,0 C 99 % 1016,5 hPa 0,0 l/m O-NO 0,75 h 133 W/m 5,3 km/h (1 Bft)
30.11.2018 10:00 2,9 C 99 % 1016,2 hPa 0,0 l/m O-NO 0,08 h 112 W/m 2,1 km/h (1 Bft)
30.11.2018 11:00 3,7 C 99 % 1015,5 hPa 0,0 l/m O-NO 0,00 h 85 W/m 2,4 km/h (1 Bft)
30.11.2018 12:00 4,4 C 98 % 1014,8 hPa 0,0 l/m O-NO 0,00 h 70 W/m 6,2 km/h (2 Bft)
30.11.2018 13:00 4,6 C 98 % 1014,6 hPa 0,2 l/m S-SO 0,00 h 64 W/m 4,4 km/h (1 Bft)
30.11.2018 14:00 5,0 C 98 % 1014,6 hPa 0,2 l/m S-SO 0,00 h 54 W/m 1,3 km/h (1 Bft)
30.11.2018 15:00 4,9 C 98 % 1014,8 hPa 0,2 l/m S-SO 0,00 h 25 W/m 7,2 km/h (2 Bft)
30.11.2018 16:00 4,8 C 98 % 1015,2 hPa 0,6 l/m S 0,00 h 6 W/m 1,9 km/h (1 Bft)
30.11.2018 17:00 4,6 C 98 % 1015,6 hPa 0,6 l/m S 0,00 h 0 W/m 4,0 km/h (1 Bft)
30.11.2018 18:00 4,6 C 99 % 1015,9 hPa 0,4 l/m SW 0,00 h 0 W/m 7,5 km/h (2 Bft)
30.11.2018 19:00 4,6 C 99 % 1016,1 hPa 0,4 l/m W-SW 0,00 h 0 W/m 4,8 km/h (1 Bft)
30.11.2018 20:00 4,5 C 99 % 1016,5 hPa 0,4 l/m W-SW 0,00 h 0 W/m 2,4 km/h (1 Bft)
30.11.2018 21:00 4,6 C 99 % 1016,7 hPa 0,2 l/m N 0,00 h 0 W/m 0,7 km/h (0 Bft)
30.11.2018 22:00 4,7 C 99 % 1016,6 hPa 0,0 l/m W-SW 0,00 h 0 W/m 4,9 km/h (1 Bft)
30.11.2018 23:00 4,9 C 99 % 1016,7 hPa 0,0 l/m SW 0,00 h 0 W/m 7,1 km/h (2 Bft)
01.12.2018 00:00 5,0 C 99 % 1016,9 hPa 0,2 l/m SW 0,00 h 0 W/m 7,4 km/h (2 Bft)
01.12.2018 01:00 4,9 C 99 % 1016,8 hPa 0,0 l/m SW 0,00 h 0 W/m 5,1 km/h (1 Bft)
01.12.2018 02:00 4,9 C 99 % 1017,0 hPa 0,0 l/m SW 0,00 h 0 W/m 1,9 km/h (1 Bft)
01.12.2018 03:00 4,9 C 99 % 1017,2 hPa 0,0 l/m N 0,00 h 0 W/m 0,0 km/h (0 Bft)
01.12.2018 04:00 4,9 C 99 % 1017,3 hPa 0,0 l/m N 0,00 h 0 W/m 0,5 km/h (0 Bft)
01.12.2018 05:00 4,8 C 100 % 1017,6 hPa 0,0 l/m SW 0,00 h 0 W/m 1,2 km/h (1 Bft)
01.12.2018 06:00 4,9 C 100 % 1017,7 hPa 0,0 l/m N 0,00 h 0 W/m 0,9 km/h (0 Bft)
01.12.2018 07:00 4,8 C 100 % 1017,9 hPa 0,0 l/m N 0,00 h 0 W/m 0,4 km/h (0 Bft)
01.12.2018 08:00 4,9 C 100 % 1018,4 hPa 0,0 l/m SW 0,00 h 26 W/m 3,1 km/h (1 Bft)
01.12.2018 09:00 5,1 C 100 % 1018,7 hPa 0,0 l/m N 0,00 h 41 W/m 0,4 km/h (0 Bft)
01.12.2018 10:00 5,5 C 100 % 1018,3 hPa 0,0 l/m SW 0,33 h 150 W/m 8,3 km/h (2 Bft)
01.12.2018 11:00 6,5 C 99 % 1017,6 hPa 0,0 l/m SW 0,50 h 289 W/m 12,0 km/h (2 Bft)
01.12.2018 12:00 6,9 C 94 % 1017,4 hPa 0,0 l/m W-SW 0,33 h 169 W/m 11,1 km/h (2 Bft)
01.12.2018 13:00 7,5 C 89 % 1017,0 hPa 0,0 l/m W-SW 0,92 h 254 W/m 13,4 km/h (3 Bft)
01.12.2018 14:00 7,8 C 84 % 1016,4 hPa 0,0 l/m SW 0,67 h 170 W/m 13,2 km/h (3 Bft)
01.12.2018 15:00 7,4 C 83 % 1016,1 hPa 0,0 l/m W-SW 0,50 h 82 W/m 12,5 km/h (3 Bft)
01.12.2018 16:00 6,3 C 88 % 1016,1 hPa 0,0 l/m W-SW 0,00 h 11 W/m 1,9 km/h (1 Bft)
01.12.2018 17:00 5,2 C 89 % 1015,8 hPa 0,0 l/m N 0,00 h 0 W/m 0,0 km/h (0 Bft)
01.12.2018 18:00 4,1 C 91 % 1015,8 hPa 0,0 l/m N 0,00 h 0 W/m 0,0 km/h (0 Bft)
01.12.2018 19:00 3,2 C 92 % 1015,4 hPa 0,0 l/m N 0,00 h 0 W/m 0,0 km/h (0 Bft)
01.12.2018 20:00 2,8 C 93 % 1015,0 hPa 0,0 l/m N 0,00 h 0 W/m 0,0 km/h (0 Bft)
01.12.2018 21:00 2,8 C 94 % 1014,7 hPa 0,0 l/m N 0,00 h 0 W/m 0,0 km/h (0 Bft)
01.12.2018 22:00 2,8 C 95 % 1014,3 hPa 0,0 l/m N 0,00 h 0 W/m 0,0 km/h (0 Bft)
01.12.2018 23:00 2,9 C 96 % 1013,8 hPa 0,0 l/m N 0,00 h 0 W/m 0,0 km/h (0 Bft)
02.12.2018 00:00 2,9 C 96 % 1013,0 hPa 0,0 l/m N 0,00 h 0 W/m 0,1 km/h (0 Bft)
02.12.2018 01:00 3,0 C 97 % 1012,1 hPa 0,0 l/m N 0,00 h 0 W/m 0,0 km/h (0 Bft)
02.12.2018 02:00 3,2 C 97 % 1011,7 hPa 0,0 l/m W-SW 0,00 h 0 W/m 4,8 km/h (1 Bft)
02.12.2018 03:00 3,6 C 97 % 1011,0 hPa 0,0 l/m SW 0,00 h 0 W/m 11,0 km/h (2 Bft)
02.12.2018 04:00 4,2 C 97 % 1010,7 hPa 0,0 l/m SW 0,00 h 0 W/m 8,3 km/h (2 Bft)
02.12.2018 05:00 4,2 C 96 % 1010,1 hPa 0,0 l/m SW 0,00 h 0 W/m 14,5 km/h (3 Bft)
02.12.2018 06:00 4,5 C 94 % 1009,6 hPa 0,0 l/m SW 0,00 h 0 W/m 18,5 km/h (3 Bft)
02.12.2018 07:00 6,5 C 86 % 1009,3 hPa 0,4 l/m SW 0,00 h 0 W/m 31,9 km/h (5 Bft)
02.12.2018 08:00 6,9 C 86 % 1009,1 hPa 0,4 l/m W-SW 0,00 h 10 W/m 36,3 km/h (5 Bft)
02.12.2018 09:00 6,3 C 89 % 1009,1 hPa 0,0 l/m W-SW 0,00 h 40 W/m 23,6 km/h (4 Bft)
02.12.2018 10:00 6,0 C 92 % 1009,2 hPa 0,0 l/m SW 0,00 h 54 W/m 20,2 km/h (4 Bft)
02.12.2018 11:00 6,8 C 95 % 1008,8 hPa 0,8 l/m W-SW 0,00 h 35 W/m 31,7 km/h (5 Bft)
02.12.2018 12:00 7,1 C 96 % 1009,0 hPa 0,0 l/m W-SW 0,00 h 71 W/m 29,3 km/h (5 Bft)
02.12.2018 13:00 7,5 C 96 % 1008,4 hPa 0,0 l/m W-SW 0,00 h 42 W/m 33,8 km/h (5 Bft)
02.12.2018 14:00 8,3 C 95 % 1008,4 hPa 0,0 l/m SW 0,00 h 47 W/m 40,4 km/h (6 Bft)
02.12.2018 15:00 8,1 C 94 % 1008,8 hPa 0,0 l/m SW 0,00 h 16 W/m 28,8 km/h (5 Bft)
02.12.2018 16:00 8,4 C 95 % 1008,9 hPa 0,4 l/m W-SW 0,00 h 7 W/m 38,9 km/h (6 Bft)
02.12.2018 17:00 8,6 C 95 % 1008,9 hPa 0,0 l/m W-SW 0,00 h 0 W/m 39,4 km/h (6 Bft)
02.12.2018 18:00 8,9 C 95 % 1009,2 hPa 0,0 l/m W-SW 0,00 h 0 W/m 40,9 km/h (6 Bft)
02.12.2018 19:00 9,1 C 95 % 1009,2 hPa 0,2 l/m W-SW 0,00 h 0 W/m 30,7 km/h (5 Bft)
02.12.2018 20:00 8,9 C 96 % 1009,0 hPa 1,0 l/m W-SW 0,00 h 0 W/m 28,3 km/h (4 Bft)
02.12.2018 21:00 9,1 C 97 % 1009,0 hPa 0,0 l/m W 0,00 h 0 W/m 28,0 km/h (4 Bft)
02.12.2018 22:00 9,1 C 97 % 1008,7 hPa 1,2 l/m W-SW 0,00 h 0 W/m 25,3 km/h (4 Bft)
02.12.2018 23:00 9,2 C 98 % 1008,5 hPa 0,0 l/m W-SW 0,00 h 0 W/m 26,0 km/h (4 Bft)
Min-Datum _ 29.11.18 01.12.18 26.11.18 - - - - 26.11.18
_ Min-Zeit 06:30 15:15 03:55 - - - - 00:00
Minimum _ -0,6 C 81 % 1004,1 hPa - - - - 0,0 km/h (0 Bft)
Max-Datum _ 02.12.18 26.11.18 28.11.18 02.12.18 - 28.11.18 01.12.18 02.12.18
_ Max-Zeit 23:35 00:00 10:55 22:15 - 08:00 11:40 18:30
Maximum _ 9,3 C 100 % 1024,4 hPa 1,2 l/m - 0,08 h 480 W/m 53,1 km/h
W-SW (7 Bft)
Durchschnitt _ 2,9 C 97 % 1015,5 hPa #13,4 l/m SW #10:25 h 78 W/m 5,3 km/h (1 Bft)